519  
ASUS41 KPHI 192212  
RWRPHI  
 
REGIONAL WEATHER ROUNDUP  
NATIONAL WEATHER SERVICE MOUNT HOLLY NJ  
500 PM EST WED FEB 19 2020  
 
NOTE: "FAIR" INDICATES FEW OR NO CLOUDS BELOW 12,000 FEET WITH NO  
SIGNIFICANT WEATHER AND/OR S TO VISIBILITY
.  
 
* = STATION DOES NOT REPORT PRECIPITATION (E.G. RAIN, SNOW, ETC.)  
OR FOG.
 
 
NJZ015>026-192300-  
SOUTHERN NEW JERSEY  
 
CITY SKY/WX TMP DP RH WIND PRES REMARKS
 
POMONA FAIR 50 15 24 NW15G26 30.27R  
WILDWOOD* FAIR 48 24 39 W8 30.30S  
MILLVILLE FAIR 49 14 24 NW14 30.29R  
WRIGHTSTOWN PTCLDY 47 16 29 NW13G18 30.26R  
MOUNT HOLLY FAIR 47 15 27 NW6G17 30.28R  
TRENTON FAIR 47 11 23 NW9 30.26R  
 

 
NJZ001>014-192300-  
NORTHERN NEW JERSEY  
 
CITY SKY/WX TMP DP RH WIND PRES REMARKS
 
SUSSEX FAIR 39 13 34 NW9 30.26R WCI 33  
ANDOVER* N/A 40 8 26 N8G20 30.27R WCI 34  
MORRISTOWN MOCLDY 43 12 28 NW9G18 30.27R  
NEWARK MOCLDY 45 8 22 NW16G29 30.26R  
TETERBORO FAIR 43 13 29 N8 30.26R  
CALDWELL FAIR 44 9 23 NW9G21 30.27R  
SOMERVILLE FAIR 44 8 23 NW17G26 30.26R  
ALLAIRE* FAIR 46 14 27 NW12G21 30.26R  
TOMS RIVER* FAIR 47 17 30 NW13G20 30.26R  
 

 
PAZ043-044-047-054-055-060>062-066>071-192300-  
EASTERN PENNSYLVANIA  
 
CITY SKY/WX TMP DP RH WIND PRES REMARKS
 
PHILADELPHIA MOCLDY 48 12 23 W15 30.29R  
NORTH PHILA FAIR 49 14 24 NW13 30.29R  
BLUE BELL* FAIR 46 14 27 NW9 30.28R  
DOYLESTOWN FAIR 46 10 23 NW9 30.26R  
QUAKERTOWN* CLEAR 43 10 26 VRB7G16 30.28R  
PERKASIE* FAIR 43 10 26 NW10G22 30.28R  
POTTSTOWN FAIR 43 13 29 NW12G18 30.30R  
LANCASTER FAIR 46 16 30 W13 30.29R  
COATESVILLE FAIR 43 18 36 NW14 30.29S  
WEST CHESTER FAIR 45 9 23 W13G21 30.29R  
READING FAIR 45 12 26 NW15G22 30.29R  
ALLENTOWN FAIR 45 17 32 N12 30.28R  
QN CITY/ALNTWN FAIR 43 12 28 W14G20 30.30R  
MOUNT POCONO FAIR 31 10 41 NW18G26 30.21R WCI 19  
HAZLETON FAIR 36 14 41 NW8 30.27R WCI 29  
WILKES BARRE FAIR 38 11 32 W13 30.28R WCI 30  
 

 
DEZALL-MDZ008-012-015-019-020-192300-  
DELAWARE AND EASTERN MARYLAND  
 
CITY SKY/WX TMP DP RH WIND PRES REMARKS
 
WILMINGTON FAIR 48 17 29 NW17 30.31R  
DOVER FAIR 50 14 23 NW13 30.29R  
CHESWOLD CLEAR 50 16 25 NW5G15 30.31R  
GEORGETOWN FAIR 49 22 34 W8 30.32R  
EASTON CLEAR 50 21 32 SW7 30.36R  
STEVENSVILLE FAIR 48 23 37 N12 30.32R  
ABERDEEN MOCLDY 48 12 23 NW8G17 30.32R  
PATUXENT FAIR 50 21 32 NW6 30.34  
OCEAN CITY FAIR 48 21 34 NW7 30.33R  
WALLOPS ISLAND FAIR 47 22 37 NW9 30.34R  
CAMBRIDGE CLEAR 48 21 34 CALM 30.33S  
SALISBURY FAIR 48 21 34 W9 30.33R  
 

 
PAZ001-021-NYZ056-072-MDZ011-DCZ001-192300-  
OTHER NEARBY LOCATIONS  
 
CITY SKY/WX TMP DP RH WIND PRES REMARKS
 
HARRISBURG FAIR 46 14 27 NW14 30.30R  
STATE COLLEGE CLEAR 37 10 32 NW14G21 30.31R WCI 29  
WILLIAMSPORT FAIR 41 7 24 NW15 30.31R  
BINGHAMTON CLOUDY 25 16 68 NW16 30.26S WCI 12  
NEW YORK CITY FAIR 44 8 23 W9 30.28R  
BALTIMORE MOCLDY 49 12 22 W16G24 30.32R  
WASHINGTON DC MOCLDY 51 14 22 N14 30.34R  
 

 
 
 
CLICK HERE TO GO TO PREVIOUS BULLETINS.

The Nexlab PA Page
The Nexlab NJ Page
The Nexlab DE Page
The Nexlab MD Page Main Text Page